Buenos Aires, Argentina

1:56 PM America en Julio 23, 2018 (GMT +0000)
Jorge Newbery Aeroparque

Tiempo Historia de SABE - Mayo, 2018

Change the Weather History Date:

Jueves, Mayo 17, 2018

  Actual Average Record
Temperature  
Temperatura media 53 ° F -  
Temperatura máxima 56 ° F 62 ° F 75 ° F (1997)
Temperatura mínima 50 ° F 50 ° F 42 ° F (2007)
Degree Days  
Grados día de calefacción 12    
Growing Degree Days 3 (Base 50)    
Moisture  
Punto de rocío 45 ° F    
Average Humidity 69    
Maximum Humidity 87    
Minimum Humidity 49    
Precipitación  
Precipitación 0.12 pul 0.08 pul - ()
Presión al nivel del mar  
Presión al nivel del mar 30.08 pul    
Viento  
Velocidad del viento 5 mph ()    
Velocidad máxima del viento 12 mph    
Max Gust Speed -    
Visibilidad 5.6 Millas    
Eventos Lluvia    
Averages and records for this station are not official NWS values.
T = Trace of Precipitation, MM = Missing Value Source: Averaged Metar Reports

Daily Weather History Graph

Daily Weather History Graph

Search for Another Location

Airport or City:

Astronomía

May. 17, 2018 Salida Puesta
Hora real 7:41 AM -03 5:58 PM -03
Crepúsculo civil 7:14 AM -03 6:25 PM -03
Crepúsculo náutico 6:44 AM -03 6:55 PM -03
Crepúsculo astronómico 6:14 AM -03 7:25 PM -03
Luna 9:47 AM -03 (5/17) 8:15 PM -03 (5/17)
Horas de luz 11h 10m
Horas de luz
10h 16m
Creciente, 6% of the Moon is Illuminated
May 17
Creciente
May 22
Cuarto creciente
May 29
Luna llena
Jun 6
Cuarto menguante
Jun 13
Nueva

Hourly Weather History & Observations

Hora (-03) Temp. Punto de rocío Humedad Presión Visibilidad Wind Dir Velocidad del viento Velocidad de ráfagas Precip Eventos Condiciones
12:00 AM 55 ° F 41 ° F 49% 30.16 pul 6 mi SE 3.5 mph - -   Nublado
12:00 AM 55.4 ° F 41.0 ° F 58% 30.15 pul - SE 3.5 mph - N/A   Despejado
1:00 AM 55.4 ° F 42.8 ° F 63% 30.12 pul - ESE 5.8 mph - N/A   Despejado
2:00 AM 55.4 ° F 42.8 ° F 63% 30.12 pul - Este 6.9 mph - N/A   Despejado
3:00 AM 56 ° F 43 ° F 52% 30.12 pul 6 mi ESE 5.8 mph - -   Nublado
3:00 AM 55.4 ° F 42.8 ° F 63% 30.12 pul - Este 5.8 mph - N/A   Despejado
4:00 AM 55.4 ° F 44.6 ° F 67% 30.09 pul - ENE 5.8 mph - N/A   Despejado
5:00 AM 55.4 ° F 44.6 ° F 67% 30.09 pul 6.2 mi Oeste 2.3 mph - N/A   Nublado
6:00 AM 55 ° F 45 ° F 59% 30.11 pul 6 mi Oeste 3.5 mph - -   Nublado
6:00 AM 55.4 ° F 44.6 ° F 67% 30.09 pul 6.2 mi Oeste 3.5 mph - N/A   Nublado
7:00 AM 55.4 ° F 46.4 ° F 72% 30.09 pul 6.2 mi Oeste 4.6 mph - N/A   Nublado
8:00 AM 55.4 ° F 46.4 ° F 72% 30.12 pul 5.6 mi Oeste 3.5 mph - N/A   Nublado
9:00 AM 55 ° F 46 ° F 63% 30.14 pul 6 mi Oeste 2.3 mph - -   Neblina
9:00 AM 55.4 ° F 46.4 ° F 72% 30.12 pul 5.6 mi Oeste 2.3 mph - N/A   Nublado
9:05 AM 53.6 ° F 46.4 ° F 77% 30.12 pul 5.0 mi NO 2.3 mph - N/A Lluvia Lluvia débil
9:14 AM 53.6 ° F 46.4 ° F 77% 30.12 pul 3.1 mi Norte 3.5 mph - N/A Lluvia Lluvia débil
10:00 AM 55.4 ° F 46.4 ° F 72% 30.12 pul 5.0 mi NNE 8.1 mph - N/A Lluvia Lluvia débil
10:44 AM 53.6 ° F 46.4 ° F 77% 30.12 pul 5.0 mi ENE 5.8 mph - N/A Lluvia Lluvia débil
11:00 AM 55.4 ° F 46.4 ° F 72% 30.12 pul 5.6 mi ENE 5.8 mph - N/A Lluvia Lluvia débil
12:00 PM 55 ° F 44 ° F 58% 30.12 pul 6 mi NE 6.9 mph - - Lluvia Lluvia débil
12:00 PM 55.4 ° F 44.6 ° F 67% 30.12 pul 5.6 mi NE 5.8 mph - N/A Lluvia Lluvia débil
12:25 PM 55.4 ° F 41.0 ° F 58% 30.09 pul 6.2 mi NNE 5.8 mph - N/A   Nublado
1:00 PM 55.4 ° F 42.8 ° F 63% 30.09 pul 5.0 mi NE 4.6 mph - N/A Lluvia Lluvia débil
1:35 PM 55.4 ° F 44.6 ° F 67% 30.06 pul 3.1 mi NNE 5.8 mph - N/A Lluvia Lluvia débil
2:00 PM 53.6 ° F 42.8 ° F 67% 30.06 pul 4.3 mi NE 4.6 mph - N/A Lluvia Lluvia débil
3:00 PM 55 ° F 47 ° F 66% 30.05 pul 5 mi NNE 8.1 mph - - Lluvia Lluvia débil
3:00 PM 55.4 ° F 46.4 ° F 72% 30.04 pul 5.0 mi NNE 6.9 mph - N/A Lluvia Lluvia débil
3:30 PM 55.4 ° F 46.4 ° F 72% 30.04 pul 6.2 mi Norte 9.2 mph - N/A   Nublado
4:00 PM 55.4 ° F 44.6 ° F 67% 30.01 pul 6.2 mi NNE 8.1 mph - N/A   Nublado
5:00 PM 55.4 ° F 46.4 ° F 72% 30.01 pul 6.2 mi Norte 9.2 mph - N/A   Nublado
6:00 PM 54 ° F 46 ° F 68% 30.01 pul 6 mi Norte 10.4 mph - -   Parcialmente nublado
6:00 PM 53.6 ° F 46.4 ° F 77% 30.01 pul 6.2 mi Norte 10.4 mph - N/A   Muy nublado
7:00 PM 55.4 ° F 48.2 ° F 77% 30.01 pul 6.2 mi Norte 10.4 mph - N/A   Nubes dispersas
8:00 PM 53.6 ° F 44.6 ° F 72% 30.01 pul 6.2 mi NNO 11.5 mph - N/A   Muy nublado
9:00 PM 52 ° F 47 ° F 79% 30.04 pul 6 mi NO 11.5 mph - -   Parcialmente nublado
9:00 PM 53.6 ° F 48.2 ° F 82% 30.04 pul 6.2 mi NNO 11.5 mph - N/A   Nubes dispersas
10:00 PM 50.0 ° F 44.6 ° F 82% 30.01 pul 6.2 mi NNO 11.5 mph - N/A   Nubes dispersas
11:00 PM 50.0 ° F 46.4 ° F 87% 30.01 pul 6.2 mi ONO 5.8 mph - N/A   Parcialmente nublado